SAS647 EKCH-EDDH

Flight info

Callsign SAS647
Flight time 0h 39m
Altitude 24000
Route NEXEN T503 MICOS/N0449F280 N850 BOGMU BOGMU3S
Aircraft CRJ9/M-SDFGIRWY/S

Departure

Time 2026-04-26 08:10
Airport Copenhagen Kastrup Airport (EKCH)

Arrival

Time 2026-04-26 08:50
Airport Hamburg Helmut Schmidt Airport (EDDH)
Time Latitude Longitude Altitude Speed Heading
2026-04-26 07:24 55.62726 12.64285 15 ft 0 kts 303°
2026-04-26 07:53 55.62726 12.64287 -12 ft 2 kts 303°
2026-04-26 07:54 55.62711 12.64324 16 ft 4 kts 311°
2026-04-26 07:54 55.62696 12.64338 17 ft 4 kts 21°
2026-04-26 07:54 55.62675 12.64321 16 ft 4 kts 22°
2026-04-26 07:54 55.62650 12.64304 15 ft 3 kts 20°
2026-04-26 07:55 55.62639 12.64297 19 ft 4 kts 25°
2026-04-26 07:55 55.62609 12.64265 17 ft 4 kts 39°
2026-04-26 07:55 55.62598 12.64243 18 ft 4 kts 63°
2026-04-26 07:55 55.62596 12.64201 16 ft 4 kts 106°
2026-04-26 07:56 55.62609 12.64160 16 ft 4 kts 126°
2026-04-26 07:56 55.62625 12.64122 17 ft 4 kts 127°
2026-04-26 07:56 55.62630 12.64111 16 ft 0 kts 124°
2026-04-26 08:00 55.62627 12.64117 15 ft 1 kts 123°
2026-04-26 08:01 55.62624 12.64128 15 ft 0 kts 123°
2026-04-26 08:01 55.62618 12.64143 17 ft 5 kts 123°
2026-04-26 08:01 55.62587 12.64229 15 ft 12 kts 122°
2026-04-26 08:01 55.62530 12.64380 15 ft 18 kts 123°
2026-04-26 08:02 55.62469 12.64542 17 ft 16 kts 123°
2026-04-26 08:02 55.62426 12.64662 17 ft 7 kts 122°
2026-04-26 08:02 55.62405 12.64718 16 ft 0 kts 122°
2026-04-26 08:02 55.62405 12.64720 16 ft 1 kts 122°
2026-04-26 08:03 55.62393 12.64752 17 ft 7 kts 126°
2026-04-26 08:03 55.62338 12.64785 17 ft 10 kts 179°
2026-04-26 08:03 55.62264 12.64790 17 ft 11 kts 174°
2026-04-26 08:03 55.62185 12.64745 18 ft 15 kts 213°
2026-04-26 08:04 55.62090 12.64635 16 ft 19 kts 213°
2026-04-26 08:04 55.61966 12.64508 15 ft 21 kts 193°
2026-04-26 08:04 55.61824 12.64532 15 ft 21 kts 169°
2026-04-26 08:04 55.61701 12.64570 15 ft 11 kts 179°
2026-04-26 08:05 55.61640 12.64529 15 ft 10 kts 210°
2026-04-26 08:05 55.61579 12.64457 15 ft 12 kts 214°
2026-04-26 08:05 55.61501 12.64364 16 ft 16 kts 213°
2026-04-26 08:05 55.61390 12.64240 17 ft 22 kts 213°
2026-04-26 08:06 55.61254 12.64081 16 ft 24 kts 213°
2026-04-26 08:06 55.61113 12.63918 17 ft 24 kts 213°
2026-04-26 08:06 55.60971 12.63759 15 ft 23 kts 210°
2026-04-26 08:06 55.60868 12.63637 15 ft 16 kts 214°
2026-04-26 08:07 55.60826 12.63591 16 ft 8 kts 200°
2026-04-26 08:07 55.60779 12.63604 16 ft 9 kts 140°
2026-04-26 08:07 55.60765 12.63628 15 ft 0 kts 135°
2026-04-26 08:07 55.60753 12.63650 15 ft 6 kts 131°
2026-04-26 08:08 55.60733 12.63690 15 ft 0 kts 130°
2026-04-26 08:08 55.60733 12.63691 15 ft 1 kts 130°
2026-04-26 08:09 55.60726 12.63706 15 ft 0 kts 130°
2026-04-26 08:09 55.60723 12.63712 15 ft 2 kts 130°
2026-04-26 08:09 55.60700 12.63760 16 ft 11 kts 130°
2026-04-26 08:09 55.60701 12.63915 17 ft 10 kts 41°
2026-04-26 08:10 55.60876 12.64175 16 ft 69 kts 39°
2026-04-26 08:10 55.61420 12.65025 16 ft 136 kts 41°
2026-04-26 08:10 55.62259 12.66290 258 ft 171 kts 39°
2026-04-26 08:10 55.63176 12.67798 907 ft 193 kts 39°
2026-04-26 08:11 55.64239 12.69507 1351 ft 220 kts 38°
2026-04-26 08:11 55.65481 12.71358 1831 ft 248 kts 37°
2026-04-26 08:11 55.66793 12.73296 3079 ft 244 kts 37°
2026-04-26 08:11 55.68088 12.75236 4266 ft 244 kts 37°
2026-04-26 08:12 55.69393 12.77187 5338 ft 248 kts 36°
2026-04-26 08:12 55.70579 12.79457 6295 ft 260 kts 59°
2026-04-26 08:12 55.70880 12.82660 7212 ft 277 kts 95°
2026-04-26 08:12 55.70101 12.85799 8020 ft 294 kts 127°
2026-04-26 08:13 55.68522 12.88106 8823 ft 305 kts 150°
2026-04-26 08:13 55.66557 12.89639 9641 ft 313 kts 160°
2026-04-26 08:13 55.64462 12.90886 10420 ft 321 kts 163°
2026-04-26 08:13 55.62296 12.91998 11126 ft 328 kts 172°
2026-04-26 08:14 55.60044 12.91800 11838 ft 326 kts 201°
2026-04-26 08:14 55.57986 12.89923 11817 ft 337 kts 228°
2026-04-26 08:14 55.56639 12.86698 11842 ft 321 kts 255°
2026-04-26 08:14 55.55611 12.83274 12291 ft 318 kts 241°
2026-04-26 08:15 55.54362 12.80134 12362 ft 319 kts 246°
2026-04-26 08:15 55.53267 12.76672 12322 ft 324 kts 249°
2026-04-26 08:15 55.51905 12.73372 12417 ft 346 kts 234°
2026-04-26 08:15 55.50138 12.70299 12469 ft 366 kts 230°
2026-04-26 08:16 55.48291 12.67155 12489 ft 381 kts 231°
2026-04-26 08:16 55.46383 12.63719 12663 ft 388 kts 233°
2026-04-26 08:16 55.44560 12.60211 12954 ft 389 kts 235°
2026-04-26 08:16 55.42766 12.56626 13290 ft 391 kts 236°
2026-04-26 08:17 55.42185 12.55445 13401 ft 392 kts 236°
2026-04-26 08:17 55.35421 12.41793 14637 ft 401 kts 236°
2026-04-26 08:18 55.33557 12.38106 14975 ft 402 kts 236°
2026-04-26 08:18 55.32240 12.35512 15211 ft 403 kts 236°
2026-04-26 08:18 55.30873 12.32820 15442 ft 404 kts 236°
2026-04-26 08:19 55.29000 12.29126 15758 ft 406 kts 236°
2026-04-26 08:19 55.27092 12.25376 16066 ft 407 kts 236°
2026-04-26 08:19 55.25228 12.21706 16370 ft 409 kts 236°
2026-04-26 08:19 55.23337 12.17995 16700 ft 409 kts 236°
2026-04-26 08:20 55.21432 12.14269 16994 ft 410 kts 236°
2026-04-26 08:20 55.19396 12.10815 17267 ft 419 kts 227°
2026-04-26 08:20 55.17071 12.07664 17552 ft 424 kts 223°
2026-04-26 08:20 55.14635 12.04720 17821 ft 427 kts 221°
2026-04-26 08:21 55.12189 12.01798 18074 ft 429 kts 221°
2026-04-26 08:21 55.09730 11.98783 18357 ft 429 kts 223°
2026-04-26 08:21 55.07326 11.95702 18610 ft 430 kts 224°
2026-04-26 08:21 55.04910 11.92612 18843 ft 432 kts 223°
2026-04-26 08:22 55.02476 11.89524 19077 ft 433 kts 223°
2026-04-26 08:22 55.00038 11.86436 19299 ft 433 kts 223°
2026-04-26 08:22 54.97595 11.83338 19517 ft 435 kts 223°
2026-04-26 08:22 54.95144 11.80245 19726 ft 436 kts 223°
2026-04-26 08:23 54.92702 11.77159 19936 ft 436 kts 223°
2026-04-26 08:23 54.90254 11.74079 20126 ft 437 kts 223°
2026-04-26 08:23 54.87794 11.70985 20328 ft 438 kts 223°
2026-04-26 08:23 54.85313 11.67863 20522 ft 439 kts 223°
2026-04-26 08:24 54.83672 11.65805 20640 ft 440 kts 223°
2026-04-26 08:24 54.81189 11.62699 20838 ft 441 kts 223°
2026-04-26 08:24 54.78704 11.59587 21017 ft 442 kts 223°
2026-04-26 08:24 54.76202 11.56461 21197 ft 443 kts 223°
2026-04-26 08:25 54.73698 11.53329 21372 ft 444 kts 223°
2026-04-26 08:25 54.71208 11.50231 21534 ft 444 kts 223°
2026-04-26 08:25 54.68674 11.47077 21709 ft 445 kts 223°
2026-04-26 08:25 54.66149 11.43951 21897 ft 447 kts 223°
2026-04-26 08:26 54.63661 11.40867 22456 ft 448 kts 223°
2026-04-26 08:26 54.61115 11.37714 22964 ft 451 kts 223°
2026-04-26 08:26 54.58558 11.34548 23501 ft 452 kts 222°
2026-04-26 08:26 54.56003 11.31385 23972 ft 455 kts 222°
2026-04-26 08:27 54.53413 11.28163 24146 ft 463 kts 222°
2026-04-26 08:27 54.50775 11.24878 24238 ft 473 kts 222°
2026-04-26 08:27 54.48100 11.21617 24214 ft 481 kts 221°
2026-04-26 08:27 54.45460 11.18422 23359 ft 452 kts 221°
2026-04-26 08:28 54.42941 11.15377 22438 ft 436 kts 221°
2026-04-26 08:28 54.40480 11.12383 21554 ft 431 kts 221°
2026-04-26 08:28 54.38045 11.09420 20698 ft 427 kts 221°
2026-04-26 08:28 54.35628 11.06494 19867 ft 424 kts 221°
2026-04-26 08:29 54.33283 11.03673 19076 ft 420 kts 221°
2026-04-26 08:29 54.30897 11.00829 18228 ft 415 kts 219°
2026-04-26 08:29 54.28455 10.98310 17309 ft 404 kts 216°
2026-04-26 08:29 54.26046 10.95968 16431 ft 394 kts 215°
2026-04-26 08:30 54.23686 10.93706 15553 ft 384 kts 214°
2026-04-26 08:30 54.21375 10.91489 14730 ft 376 kts 214°
2026-04-26 08:30 54.19114 10.89314 13895 ft 371 kts 214°
2026-04-26 08:30 54.16816 10.87086 13024 ft 384 kts 214°
2026-04-26 08:31 54.14499 10.84825 12183 ft 383 kts 214°
2026-04-26 08:31 54.12202 10.82563 11353 ft 378 kts 214°
2026-04-26 08:31 54.10001 10.80390 10824 ft 359 kts 214°
2026-04-26 08:31 54.07854 10.78274 10774 ft 359 kts 214°
2026-04-26 08:32 54.05656 10.76099 10537 ft 373 kts 214°
2026-04-26 08:32 54.03432 10.73888 10239 ft 360 kts 214°
2026-04-26 08:32 54.01362 10.71840 9874 ft 337 kts 214°
2026-04-26 08:32 53.99401 10.69911 9498 ft 318 kts 214°
2026-04-26 08:33 53.97531 10.68071 9133 ft 303 kts 214°
2026-04-26 08:33 53.95740 10.66304 8772 ft 291 kts 214°
2026-04-26 08:33 53.93994 10.64573 8448 ft 289 kts 214°
2026-04-26 08:33 53.92337 10.62718 8106 ft 284 kts 221°
2026-04-26 08:34 53.90760 10.60589 7789 ft 294 kts 223°
2026-04-26 08:34 53.89169 10.58330 7486 ft 301 kts 224°
2026-04-26 08:34 53.87619 10.56085 7256 ft 282 kts 224°
2026-04-26 08:34 53.86184 10.53997 7151 ft 263 kts 224°
2026-04-26 08:35 53.84745 10.51889 7108 ft 286 kts 224°
2026-04-26 08:35 53.83138 10.49677 7185 ft 305 kts 222°
2026-04-26 08:35 53.81457 10.47309 7181 ft 327 kts 222°
2026-04-26 08:35 53.79734 10.44836 7175 ft 311 kts 223°
2026-04-26 08:36 53.78148 10.42526 6616 ft 300 kts 223°
2026-04-26 08:36 53.76592 10.40245 5988 ft 292 kts 223°
2026-04-26 08:36 53.75090 10.38010 5450 ft 282 kts 223°
2026-04-26 08:36 53.73684 10.35899 5183 ft 264 kts 223°
2026-04-26 08:37 53.72406 10.33945 5066 ft 258 kts 224°
2026-04-26 08:37 53.71045 10.31862 5019 ft 268 kts 224°
2026-04-26 08:37 53.69648 10.29719 5048 ft 269 kts 223°
2026-04-26 08:37 53.68280 10.27651 5001 ft 261 kts 223°
2026-04-26 08:38 53.66932 10.25623 5009 ft 258 kts 223°
2026-04-26 08:38 53.65617 10.23640 4992 ft 249 kts 223°
2026-04-26 08:38 53.64346 10.21701 4977 ft 249 kts 224°
2026-04-26 08:38 53.63081 10.19647 4990 ft 259 kts 227°
2026-04-26 08:39 53.61798 10.17385 5013 ft 272 kts 228°
2026-04-26 08:39 53.60489 10.15041 5020 ft 277 kts 228°
2026-04-26 08:39 53.59181 10.12664 5025 ft 270 kts 229°
2026-04-26 08:39 53.57946 10.10435 5005 ft 259 kts 228°
2026-04-26 08:40 53.56711 10.08212 4996 ft 255 kts 228°
2026-04-26 08:40 53.55505 10.06013 5004 ft 256 kts 229°
2026-04-26 08:40 53.54299 10.03805 5022 ft 257 kts 229°
2026-04-26 08:40 53.53079 10.01584 5027 ft 259 kts 228°
2026-04-26 08:41 53.51901 9.99445 5026 ft 260 kts 229°
2026-04-26 08:41 53.50668 9.97177 5026 ft 259 kts 229°
2026-04-26 08:41 53.49464 9.94960 4824 ft 266 kts 229°
2026-04-26 08:41 53.48201 9.92607 4383 ft 272 kts 228°
2026-04-26 08:42 53.46930 9.90279 3973 ft 269 kts 229°
2026-04-26 08:42 53.45691 9.87942 3527 ft 266 kts 228°
2026-04-26 08:42 53.44478 9.85648 3284 ft 257 kts 228°
2026-04-26 08:42 53.43322 9.83443 3143 ft 251 kts 229°
2026-04-26 08:43 53.42161 9.81248 3116 ft 252 kts 229°
2026-04-26 08:43 53.41047 9.78999 3125 ft 247 kts 239°
2026-04-26 08:43 53.40626 9.76351 3038 ft 231 kts 278°
2026-04-26 08:43 53.41259 9.74038 3023 ft 215 kts 319°
2026-04-26 08:44 53.42370 9.72500 2999 ft 202 kts 322°
2026-04-26 08:44 53.43463 9.71035 2963 ft 200 kts 323°
2026-04-26 08:44 53.44653 9.69843 2946 ft 201 kts 350°
2026-04-26 08:44 53.46004 9.70092 2961 ft 197 kts 20°
2026-04-26 08:45 53.47288 9.70857 2982 ft 199 kts 22°
2026-04-26 08:45 53.48589 9.71702 2976 ft 196 kts 23°
2026-04-26 08:45 53.49773 9.72788 2944 ft 193 kts 45°
2026-04-26 08:45 53.50712 9.74374 2936 ft 200 kts 46°
2026-04-26 08:46 53.51720 9.76132 2957 ft 211 kts 49°
2026-04-26 08:46 53.52704 9.78000 2964 ft 221 kts 51°
2026-04-26 08:46 53.53667 9.79849 3303 ft 195 kts 48°
2026-04-26 08:46 53.54568 9.81466 2950 ft 187 kts 47°
2026-04-26 08:47 53.55395 9.82961 2639 ft 155 kts 48°
2026-04-26 08:47 53.56061 9.84224 2303 ft 145 kts 50°
2026-04-26 08:47 53.56715 9.85593 2061 ft 154 kts 54°
2026-04-26 08:47 53.57333 9.87001 2079 ft 148 kts 54°
2026-04-26 08:48 53.57930 9.88418 1745 ft 144 kts 56°
2026-04-26 08:48 53.58491 9.89757 1318 ft 135 kts 54°
2026-04-26 08:48 53.59101 9.90905 977 ft 129 kts 46°
2026-04-26 08:48 53.59693 9.92002 648 ft 128 kts 51°
2026-04-26 08:49 53.60295 9.93249 524 ft 140 kts 53°
2026-04-26 08:49 53.60899 9.94492 348 ft 139 kts 51°
2026-04-26 08:49 53.61536 9.95780 175 ft 145 kts 51°
2026-04-26 08:49 53.62176 9.97066 49 ft 134 kts 51°
2026-04-26 08:50 53.62686 9.98104 40 ft 96 kts 51°
2026-04-26 08:50 53.63019 9.98786 44 ft 57 kts 50°
2026-04-26 08:50 53.63236 9.99228 45 ft 36 kts 51°
2026-04-26 08:50 53.63289 9.99535 45 ft 14 kts 97°
2026-04-26 08:51 53.63279 9.99641 47 ft 0 kts 99°
2026-04-26 08:51 53.63274 9.99683 47 ft 7 kts 105°
2026-04-26 08:51 53.63231 9.99753 47 ft 12 kts 152°
2026-04-26 08:52 53.63154 9.99820 47 ft 13 kts 153°
2026-04-26 08:52 53.63059 9.99903 47 ft 18 kts 152°
2026-04-26 08:52 53.62944 10.00001 47 ft 14 kts 152°
2026-04-26 08:52 53.62861 10.00055 45 ft 12 kts 153°
2026-04-26 08:53 53.62784 10.00124 47 ft 12 kts 152°
2026-04-26 08:53 53.62706 10.00194 47 ft 13 kts 157°
2026-04-26 08:53 53.62628 10.00258 47 ft 12 kts 152°
2026-04-26 08:53 53.62601 10.00300 47 ft 2 kts 110°
2026-04-26 08:54 53.62604 10.00350 47 ft 3 kts 71°
2026-04-26 08:54 53.62609 10.00404 44 ft 7 kts 107°
2026-04-26 08:54 53.62571 10.00437 47 ft 5 kts 206°
2026-04-26 08:54 53.62561 10.00414 47 ft 2 kts 251°
2026-04-26 08:55 53.62555 10.00393 45 ft 1 kts 244°
2026-04-26 08:55 53.62552 10.00382 46 ft 0 kts 244°
2026-04-26 08:55 53.62551 10.00377 46 ft 2 kts 244°
2026-04-26 08:55 53.62550 10.00376 43 ft 0 kts 244°
2026-04-26 08:56 53.62553 10.00385 46 ft 0 kts 244°